Вернуться в каталог

COSMOS 2251 DEB

АктивенLEO
NORAD 35060·DEBRIS·🇷🇺 Russia

Запущен Jun 16, 1993 с Plesetsk Cosmodrome

Loading…

Ближайшие Пролёты (ближайшие 24 часа)

TLE

УстаревающийSource: Space-Track

Эпоха: Sep 9, 2026, 06:29 UTC

1 35060U 93036AHP 26252.27033836  .00000509  00000-0  16251-3 0  9996
2 35060  74.0353 102.9729 0017639 127.9970 232.2783 14.42088247911412

Отслеживайте COSMOS 2251 DEB в реальном времени с AllMySat

Download on the App Store